Regional Weather Roundup
Issued by NWS Green Bay, WI

Home | Current Version | Previous Version | Graphics & Text | Print | Product List | Glossary Off
Versions: 1 2 3 4 5 6 7 8 9 10 11 12 13 14 15 16 17 18 19 20 21 22 23 24 25 26 27 28 29 30 31 32 33 34 35 36 37 38 39 40 41 42 43 44 45 46 47 48 49 50

000
ASUS43 KGRB 181659
RWRGRB

NORTH-CENTRAL AND NORTHEAST WISCONSIN REGIONAL WEATHER ROUNDUP
NATIONAL WEATHER SERVICE GREEN BAY WI
1200 PM CDT SAT APR 18 2015

WIZ005-009-010>012-018-019-181800-
NORTH CENTRAL WISCONSIN

CITY           SKY/WX    TMP DP  RH WIND       PRES   REMARKS
IRONWOOD       SUNNY     54  28  37 E13       30.17F
MANITOWISH WTR NOT AVBL
ARBOR VITAE    NOT AVBL
EAGLE RIVER    NOT AVBL
LAND O LAKES   NOT AVBL
RHINELANDER    SUNNY     57  27  31 E14G22    30.17F
PHILLIPS       NOT AVBL
ANTIGO         NOT AVBL
TOMAHAWK       NOT AVBL
MERRILL        NOT AVBL
$$

WIZ013-073-181800-
NORTHEAST WISCONSIN

CITY           SKY/WX    TMP DP  RH WIND       PRES   REMARKS
IRON MOUNTAIN  SUNNY     53  27  36 VRB5      30.21F
MARINETTE      SUNNY     50  34  53 E17       30.22S
$$

WIZ017-030-035>037-045-181800-
CENTRAL WISCONSIN

CITY           SKY/WX    TMP DP  RH WIND       PRES   REMARKS
MEDFORD        NOT AVBL
WAUSAU         SUNNY     59  29  31 E13G23    30.14F
MOSINEE        SUNNY     57  30  35 E10G17    30.16F
MARSHFIELD     MOSUNNY   62  32  32 SE17G23   30.14S
WISC RAPIDS      N/A     61  29  29 E14       30.15F
STEVENS POINT  NOT AVBL
WAUPACA        NOT AVBL
SHAWANO        NOT AVBL
CLINTONVILLE   NOT AVBL
$$

WIZ038-039-048-051-181800-
FOX VALLEY

CITY           SKY/WX    TMP DP  RH WIND       PRES   REMARKS
NWS GREEN BAY  SUNNY     52  39  61 NE16      30.20F
APPLETON       PTSUNNY   54  36  50 NE9G17    30.18F
OSHKOSH        MOSUNNY   56  36  47 E17G25    30.16F
FOND DU LAC    MOSUNNY   58  33  39 E17       30.16S
$$

WIZ022-050-052-181800-
EAST CENTRAL WISCONSIN

CITY           SKY/WX    TMP DP  RH WIND       PRES   REMARKS
STURGEON BAY   SUNNY     52  30  43 NE16G23   30.23S
MANITOWOC      NOT AVBL
SHEBOYGAN      MOSUNNY   51  37  58 NE23      30.17F
$$

LMZ563-521-522-541>543-181800-
LAKESHORE

STATION/POSITION TIME  TEMP    WIND        PRES    VSBY  WAVE
                       AIR SEA DIR/SP/G                  HT/PER
                 (UTC) (F)     (DEG/KT/KT) (MB)    (MI)  (FT/S)
SHEBOYGAN LKSHOR 1600   40      10/ 24/ 26 1022.7R
KEWAUNEE LKSHORE 1600   42      40/ 16/ 21 1022.2S
NORTHPORT PIER   1600   41     310/  9/ 10 1023.7R
SISTER BAY LKSHO 1600   48     360/ 12/ 15   N/A
CHAMBERS ISLAND  1600   43      20/ 12/ 13 1023.7R
MENOMINEE LKSHOR 1600   43      50/ 14/ 16 1024.0R
$$


USA.gov is the U.S. government's official web portal to all federal, state and local government web resources and services.